This is the latest recevied weather packets stored in our database for station/object LA4M-10. If no packets are shown the sender has not sent any weather packets the latest 10 day(s).
| Time | Temp. | Humidity | Pressure | Rain* | Wind** | Luminosity | Snow |
|---|---|---|---|---|---|---|---|
| 1788370248 | 10.56° C | 100% | 937.3 hPa | - | - | - | - |
| 1788369347 | 10° C | 100% | 937.2 hPa | - | - | - | - |
| 1788368447 | 9.44° C | 100% | 937.1 hPa | - | - | - | - |
| 1788367547 | 8.33° C | 100% | 938 hPa | - | - | - | - |
| 1788366647 | 8.89° C | 100% | 937.9 hPa | - | - | - | - |
| 1788365747 | 10° C | 100% | 937.6 hPa | - | - | - | - |
| 1788364847 | 11.11° C | 100% | 937.8 hPa | - | - | - | - |
| 1788363947 | 11.11° C | 100% | 937.4 hPa | - | - | - | - |
| 1788363047 | 11.67° C | 100% | 937.1 hPa | - | - | - | - |
| 1788362147 | 11.67° C | 100% | 937.2 hPa | - | - | - | - |
| 1788361246 | 11.67° C | 100% | 937.5 hPa | - | - | - | - |
| 1788360346 | 12.78° C | 100% | 937.4 hPa | - | - | - | - |
| 1788359446 | 12.22° C | 100% | 937.4 hPa | - | - | - | - |
| 1788358546 | 12.22° C | 100% | 937.4 hPa | - | - | - | - |
| 1788357646 | 12.22° C | 100% | 937.5 hPa | - | - | - | - |
| 1788356746 | 12.22° C | 100% | 937.7 hPa | - | - | - | - |
| 1788355846 | 12.22° C | 100% | 937.7 hPa | - | - | - | - |
| 1788354944 | 11.67° C | 100% | 937.7 hPa | - | - | - | - |
| 1788354044 | 11.67° C | 100% | 937.8 hPa | - | - | - | - |
| 1788353144 | 12.22° C | 100% | 937.6 hPa | - | - | - | - |
| 1788352244 | 11.11° C | 100% | 937.4 hPa | - | - | - | - |
| 1788351344 | 11.11° C | 100% | 937.5 hPa | - | - | - | - |
| 1788350444 | 10.56° C | 100% | 937.5 hPa | - | - | - | - |
| 1788349543 | 11.11° C | 100% | 937.6 hPa | - | - | - | - |
| 1788348643 | 10.56° C | 100% | 938 hPa | - | - | - | - |
* Rain since midnight (hover to see other rain measurements)
** Current wind speed in m/s (hover to see current wind gust speed)